Back to catalog

SJ-9A

AliveScienceSSO
NORAD 38860·PAYLOAD·🇨🇳 China

Launched Oct 14, 2012 from Taiyuan Satellite Launch Center

Loading…

Next Passes (next 24 hours)

TLE

FreshSource: Space-Track

Epoch: Sep 14, 2026, 13:06 UTC

1 38860U 12056A   26257.54605898  .00000863  00000-0  10527-3 0  9991
2 38860  97.6824 226.3243 0024631 326.4700  33.4956 14.85640633712856

Track SJ-9A in real time with AllMySat

Download on the App Store